Weather History for London, United Kingdom

Change the Weather History Date:

Saturday, January 18, 2014

  Actual Average Record
Temperature  
Mean Temperature 47 °F -  
Max Temperature 51 °F 46 °F 57 °F (2007)
Min Temperature 43 °F 35 °F 26 °F (2001)
Degree Days  
Heating Degree Days 18    
Moisture  
Dew Point 43 °F    
Average Humidity 84    
Maximum Humidity 100    
Minimum Humidity 71    
Precipitation  
Precipitation 0.02 in - - ()
Sea Level Pressure  
Sea Level Pressure 29.27 in    
Wind  
Wind Speed 9 mph ()    
Max Wind Speed 20 mph    
Max Gust Speed -    
Visibility 9.0 miles    
Events Rain    
Averages and records for this station are not official NWS values.
T = Trace of Precipitation, MM = Missing Value Source: Averaged Metar Reports

Daily Weather History Graph

Daily Weather History Graph

Search for Another Location

Airport:

Trip Planner

Search our weather history database for the weather conditions in past years. The results will help you decide how hot, cold, wet, or windy it might be!

Date:

Astronomy

Jan. 18, 2014 Rise Set
Actual Time 7:58 AM GMT 4:26 PM GMT
Civil Twilight 7:19 AM GMT 5:05 PM GMT
Nautical Twilight 6:38 AM GMT 5:46 PM GMT
Astronomical Twilight 5:58 AM GMT 6:26 PM GMT
Moon 7:18 PM GMT (1/18) 8:29 AM GMT (1/18)
Length of Visible Light 9h 45m
Length of Day
8h 28m
Waning Gibbous, 95% of the Moon is Illuminated
Jan 18
Waning Gibbous
Jan 24
Last Quarter
Jan 30
New
Feb 6
First Quarter
Feb 14
Full

Hourly Weather History & Observations

Time (GMT) Temp. Windchill Dew Point Humidity Pressure Visibility Wind Dir Wind Speed Gust Speed Precip Events Conditions
12:00 AM 44 °F - 43 °F 93% 29.37 in 6 mi SE 5.8 mph - - Rain Light Rain Showers
12:20 AM 44.6 °F 40.7 °F 44.6 °F 100% 29.36 in 6.2 mi SE 6.9 mph - N/A   Scattered Clouds
12:50 AM 46.4 °F 42.9 °F 44.6 °F 93% 29.36 in 5.6 mi SSE 6.9 mph - N/A Rain Light Rain
1:00 AM 45 °F - 44 °F 94% 29.36 in 6 mi SE 6.9 mph - - Rain Light Rain
1:20 AM 46.4 °F 43.5 °F 44.6 °F 93% 29.36 in 4.3 mi SSE 5.8 mph - N/A Rain Light Rain
1:50 AM 46.4 °F 44.3 °F 44.6 °F 93% 29.36 in 3.1 mi South 4.6 mph - N/A Rain Light Rain
2:00 AM 46 °F - 45 °F 95% 29.35 in 2 mi SSE 4.6 mph - - Rain Light Rain
2:20 AM 46.4 °F 45.2 °F 44.6 °F 93% 29.36 in 6.2 mi SSE 3.5 mph - N/A   Overcast
2:50 AM 46.4 °F 42.9 °F 46.4 °F 100% 29.33 in 6.2 mi SSE 6.9 mph - N/A   Mostly Cloudy
3:00 AM 46 °F - 46 °F 97% 29.34 in 12 mi SSE 8.1 mph - - Rain Rain
3:20 AM 46.4 °F 42.4 °F 46.4 °F 100% 29.33 in 6.2 mi SE 8.1 mph - N/A   Mostly Cloudy
3:50 AM 48.2 °F - 46.4 °F 93% 29.33 in 6.2 mi SSE 8.1 mph - N/A   Mostly Cloudy
4:00 AM 47 °F - 45 °F 91% 29.33 in 11 mi SE 9.2 mph - -   Mostly Cloudy
4:20 AM 48.2 °F - 44.6 °F 87% 29.33 in 6.2 mi SSE 9.2 mph - N/A   Partly Cloudy
4:50 AM 46.4 °F 42.4 °F 44.6 °F 93% 29.30 in 6.2 mi SSE 8.1 mph - N/A   Partly Cloudy
5:00 AM 47 °F - 44 °F 87% 29.31 in 15 mi SSE 8.1 mph - - Rain Rain
5:20 AM 46.4 °F 41.9 °F 44.6 °F 93% 29.30 in 6.2 mi SSE 9.2 mph - N/A   Partly Cloudy
5:50 AM 46.4 °F 41.9 °F 44.6 °F 93% 29.30 in 6.2 mi SE 9.2 mph - N/A   Partly Cloudy
6:00 AM 46 °F - 43 °F 87% 29.30 in 14 mi SE 11.5 mph - -  
6:20 AM 46.4 °F 40.7 °F 44.6 °F 93% 29.30 in 5.0 mi SE 12.7 mph - N/A Rain Light Rain
6:50 AM 46.4 °F 40.4 °F 42.8 °F 87% 29.30 in 6.2 mi SE 13.8 mph - N/A Rain Light Rain
7:00 AM 46 °F - 43 °F 86% 29.29 in 18 mi SE 15.0 mph - - Rain Rain
7:20 AM 46.4 °F 41.5 °F 42.8 °F 87% 29.30 in 6.2 mi SSE 10.4 mph - N/A Rain Light Rain
7:50 AM 46.4 °F 41.5 °F 42.8 °F 87% 29.30 in 6.2 mi SSE 10.4 mph - N/A Rain Light Rain
8:00 AM 46 °F - 43 °F 84% 29.29 in 14 mi SE 12.7 mph - - Rain Rain
8:20 AM 46.4 °F 41.9 °F 42.8 °F 87% 29.30 in 6.2 mi SE 9.2 mph - N/A Rain Light Rain
8:50 AM 46.4 °F 41.9 °F 42.8 °F 87% 29.27 in 6.2 mi ESE 9.2 mph - N/A Rain Light Rain
9:00 AM 46 °F - 43 °F 86% 29.29 in 15 mi ESE 9.2 mph - - Rain Light Rain Showers
9:20 AM 46.4 °F 41.9 °F 42.8 °F 87% 29.27 in 6.2 mi ESE 9.2 mph - N/A Rain Light Rain
9:50 AM 46.4 °F 41.5 °F 42.8 °F 87% 29.27 in 6.2 mi SE 10.4 mph - N/A   Scattered Clouds
10:00 AM 46 °F - 43 °F 84% 29.29 in 19 mi SE 10.4 mph - - Rain Rain
10:20 AM 48.2 °F - 42.8 °F 82% 29.27 in 6.2 mi SE 12.7 mph - N/A   Scattered Clouds
10:50 AM 48.2 °F - 42.8 °F 82% 29.27 in 6.2 mi SSE 12.7 mph - N/A   Partly Cloudy
11:00 AM 48 °F - 43 °F 77% 29.28 in 19 mi SE 13.8 mph - -   Scattered Clouds
11:20 AM 48.2 °F - 42.8 °F 82% 29.27 in 6.2 mi SSE 12.7 mph - N/A   Scattered Clouds
11:50 AM 48.2 °F - 42.8 °F 82% 29.27 in 6.2 mi SE 12.7 mph - N/A   Scattered Clouds
12:00 PM 48 °F - 43 °F 76% 29.26 in 19 mi SE 13.8 mph - -   Scattered Clouds
12:20 PM 48.2 °F - 42.8 °F 82% 29.24 in 6.2 mi SSE 15.0 mph - N/A   Mostly Cloudy
12:50 PM 48.2 °F - 42.8 °F 82% 29.24 in 6.2 mi SE 13.8 mph - N/A   Mostly Cloudy
1:00 PM 49 °F - 43 °F 74% 29.24 in 17 mi SE 13.8 mph - -   Mostly Cloudy
1:20 PM 50.0 °F - 42.8 °F 76% 29.24 in 6.2 mi SE 11.5 mph - N/A   Mostly Cloudy
1:50 PM 50.0 °F - 44.6 °F 82% 29.21 in 6.2 mi SE 12.7 mph - N/A   Mostly Cloudy
2:00 PM 50 °F - 44 °F 75% 29.22 in 18 mi SE 13.8 mph - -   Partly Cloudy
2:20 PM 50.0 °F - 44.6 °F 82% 29.21 in 6.2 mi SE 15.0 mph - N/A   Partly Cloudy
2:50 PM 50.0 °F - 42.8 °F 76% 29.21 in 6.2 mi SSE 15.0 mph - N/A   Scattered Clouds
3:00 PM 49 °F - 43 °F 72% 29.23 in 17 mi SE 19.6 mph - -   Scattered Clouds
3:20 PM 50.0 °F - 42.8 °F 76% 29.21 in 6.2 mi SSE 13.8 mph - N/A   Scattered Clouds
3:50 PM 48.2 °F - 41.0 °F 76% 29.21 in 6.2 mi SE 11.5 mph - N/A   Partly Cloudy
4:00 PM 48 °F - 42 °F 71% 29.23 in 19 mi SE 13.8 mph - -   Scattered Clouds
4:20 PM 48.2 °F - 41.0 °F 76% 29.24 in 6.2 mi SE 11.5 mph - N/A   Scattered Clouds
4:50 PM 48.2 °F - 41.0 °F 76% 29.24 in 6.2 mi ESE 10.4 mph - N/A   Mostly Cloudy
5:00 PM 47 °F - 42 °F 75% 29.24 in 17 mi ESE 11.5 mph - -   Mostly Cloudy
5:20 PM 46.4 °F 41.5 °F 41.0 °F 81% 29.24 in 6.2 mi ESE 10.4 mph - N/A   Mostly Cloudy
5:50 PM 46.4 °F 40.7 °F 41.0 °F 81% 29.24 in 6.2 mi ESE 12.7 mph - N/A   Mostly Cloudy
6:00 PM 47 °F - 42 °F 76% 29.24 in 16 mi ESE 13.8 mph - -   Mostly Cloudy
6:20 PM 46.4 °F 40.4 °F 41.0 °F 81% 29.24 in 6.2 mi ESE 13.8 mph - N/A   Mostly Cloudy
6:50 PM 46.4 °F 41.1 °F 41.0 °F 81% 29.24 in 6.2 mi SE 11.5 mph - N/A   Partly Cloudy
7:00 PM 47 °F - 41 °F 73% 29.24 in 19 mi SE 12.7 mph - -   Scattered Clouds
7:20 PM 48.2 °F - 41.0 °F 76% 29.24 in 6.2 mi SE 10.4 mph - N/A   Scattered Clouds
7:50 PM 48.2 °F - 41.0 °F 76% 29.24 in 6.2 mi SE 10.4 mph - N/A   Mostly Cloudy
8:00 PM 47 °F - 42 °F 75% 29.25 in 18 mi SE 11.5 mph - -   Mostly Cloudy
8:20 PM 48.2 °F - 41.0 °F 76% 29.24 in 6.2 mi SE 11.5 mph - N/A   Scattered Clouds
8:50 PM 48.2 °F - 41.0 °F 76% 29.24 in 6.2 mi SE 10.4 mph - N/A   Mostly Cloudy
9:00 PM 47 °F - 42 °F 76% 29.25 in 13 mi SE 11.5 mph - - Rain Light Rain Showers
9:20 PM 48.2 °F - 42.8 °F 82% 29.24 in 6.2 mi SE 10.4 mph - N/A Rain Light Rain
9:50 PM 48.2 °F - 42.8 °F 82% 29.24 in 6.2 mi SE 11.5 mph - N/A Rain Light Rain
10:00 PM 47 °F - 42 °F 78% 29.25 in 14 mi SE 13.8 mph - - Rain Rain
10:20 PM 46.4 °F 41.1 °F 42.8 °F 87% 29.24 in 6.2 mi SE 11.5 mph - N/A   Scattered Clouds
10:50 PM 48.2 °F - 42.8 °F 82% 29.24 in 6.2 mi SE 10.4 mph - N/A   Scattered Clouds
11:00 PM 47 °F - 42 °F 77% 29.26 in 19 mi SE 11.5 mph - -   Mostly Cloudy
11:20 PM 48.2 °F - 41.0 °F 76% 29.24 in 6.2 mi SE 10.4 mph - N/A   Partly Cloudy
11:50 PM 48.2 °F - 41.0 °F 76% 29.24 in 6.2 mi SE 10.4 mph - N/A   Partly Cloudy